EN

Hourly Weather Seesen

Today, 22 January, Friday

Time Temperature Precipitation Wind Pressure Humidity
00:00 +5°C° 0.1 mm 8 mps 724 mmHg 84%
01:00 +6°C° 0.1 mm 9 mps 724 mmHg 83%
02:00 +6°C° 0.1 mm 9 mps 723 mmHg 82%
03:00 +6°C° 0.1 mm 9 mps 723 mmHg 81%
04:00 +6°C° 0.1 mm 9 mps 722 mmHg 80%
05:00 +6°C° 0.2 mm 9 mps 722 mmHg 81%
06:00 +6°C° 0.2 mm 9 mps 722 mmHg 82%
07:00 +5°C° 0.2 mm 8 mps 722 mmHg 83%
08:00 +4°C° 0.9 mm 7 mps 723 mmHg 86%
09:00 +3°C° 0.9 mm 5 mps 723 mmHg 88%
10:00 +1°C° 0.9 mm 4 mps 724 mmHg 90%
11:00 +3°C° 0.1 mm 4 mps 724 mmHg 86%
12:00 +3°C° 0.1 mm 4 mps 725 mmHg 82%
13:00 +3°C° 0.1 mm 4 mps 726 mmHg 78%
14:00 +3°C° 0 mm 4 mps 726 mmHg 78%
15:00 +3°C° 0 mm 3 mps 726 mmHg 79%
16:00 +4°C° 0 mm 2 mps 726 mmHg 79%
17:00 +3°C° 0 mm 2 mps 727 mmHg 82%
18:00 +4°C° 0 mm 1 mps 727 mmHg 84%
19:00 +3°C° 0 mm 1 mps 727 mmHg 87%
20:00 +3°C° 0 mm 1 mps 727 mmHg 87%
21:00 +3°C° 0 mm 1 mps 728 mmHg 87%
22:00 +3°C° 0 mm 1 mps 728 mmHg 88%
23:00 +3°C° 0 mm 1 mps 728 mmHg 88%

Tomorrow, 23 January, Saturday

Time Temperature Precipitation Wind Pressure Humidity
00:00 +2°C° 0 mm 0 mps 728 mmHg 89%
01:00 +2°C° 0 mm 0 mps 728 mmHg 89%
02:00 +2°C° 0 mm 0 mps 728 mmHg 90%
03:00 +2°C° 0 mm 0 mps 728 mmHg 91%
04:00 +1°C° 0 mm 0 mps 728 mmHg 91%
05:00 +1°C° 0 mm 0 mps 728 mmHg 92%
06:00 +1°C° 0 mm 0 mps 728 mmHg 93%
07:00 +1°C° 0 mm 0 mps 728 mmHg 93%
08:00 +1°C° 0 mm 0 mps 728 mmHg 92%
09:00 +2°C° 0 mm 0 mps 729 mmHg 91%
10:00 +2°C° 0 mm 0 mps 729 mmHg 90%
11:00 +3°C° 0 mm 1 mps 729 mmHg 87%
12:00 +4°C° 0 mm 1 mps 729 mmHg 83%
13:00 +4°C° 0 mm 1 mps 728 mmHg 80%
14:00 +4°C° 0 mm 1 mps 728 mmHg 82%
15:00 +4°C° 0 mm 1 mps 728 mmHg 83%
16:00 +4°C° 0 mm 1 mps 728 mmHg 85%
17:00 +3°C° 0 mm 1 mps 728 mmHg 87%
18:00 +2°C° 0 mm 1 mps 728 mmHg 88%
19:00 +1°C° 0 mm 1 mps 728 mmHg 90%
20:00 +1°C° 0 mm 1 mps 728 mmHg 91%
21:00 +1°C° 0 mm 1 mps 728 mmHg 91%
22:00 -1°C° 0 mm 2 mps 728 mmHg 91%
23:00 -1°C° 0 mm 2 mps 728 mmHg 92%

Day after tomorrow, 24 January, Sunday

Time Temperature Precipitation Wind Pressure Humidity
00:00 -1°C° 0 mm 2 mps 728 mmHg 92%
01:00 -1°C° 0 mm 2 mps 728 mmHg 93%
02:00 -1°C° 0 mm 2 mps 728 mmHg 93%
03:00 -1°C° 0 mm 2 mps 728 mmHg 93%
04:00 -1°C° 0 mm 2 mps 727 mmHg 93%
05:00 -1°C° 0 mm 2 mps 728 mmHg 93%
06:00 -1°C° 0 mm 2 mps 728 mmHg 93%
07:00 -1°C° 0 mm 2 mps 728 mmHg 94%
08:00 -1°C° 0.2 mm 2 mps 728 mmHg 93%
09:00 -1°C° 0.2 mm 3 mps 729 mmHg 93%
10:00 0°C° 0.2 mm 3 mps 729 mmHg 92%
11:00 -1°C° 0.1 mm 4 mps 729 mmHg 89%
12:00 -1°C° 0.1 mm 4 mps 729 mmHg 85%
13:00 -1°C° 0.1 mm 4 mps 729 mmHg 81%
14:00 -1°C° 0 mm 4 mps 729 mmHg 81%
15:00 0°C° 0 mm 3 mps 730 mmHg 81%
16:00 0°C° 0 mm 3 mps 730 mmHg 81%
17:00 -1°C° 0 mm 3 mps 730 mmHg 83%
18:00 -2°C° 0 mm 2 mps 731 mmHg 86%
19:00 -2°C° 0 mm 2 mps 731 mmHg 89%
20:00 -3°C° 0 mm 2 mps 731 mmHg 89%
21:00 -3°C° 0 mm 2 mps 732 mmHg 90%
22:00 -1°C° 0 mm 1 mps 732 mmHg 91%
23:00 -1°C° 0 mm 1 mps 732 mmHg 91%

25 January, Monday

Time Temperature Precipitation Wind Pressure Humidity
00:00 -1°C° 0 mm 1 mps 732 mmHg 91%
01:00 -1°C° 0 mm 1 mps 732 mmHg 91%
02:00 -1°C° 0 mm 1 mps 733 mmHg 90%
03:00 -3°C° 0 mm 2 mps 733 mmHg 90%
04:00 -3°C° 0 mm 2 mps 733 mmHg 90%
05:00 -3°C° 0 mm 2 mps 733 mmHg 90%
06:00 -3°C° 0 mm 2 mps 734 mmHg 90%
07:00 -3°C° 0 mm 2 mps 734 mmHg 90%
08:00 -3°C° 0 mm 2 mps 735 mmHg 87%
09:00 -2°C° 0 mm 3 mps 735 mmHg 83%
10:00 -2°C° 0 mm 3 mps 735 mmHg 80%
11:00 -1°C° 0 mm 3 mps 736 mmHg 74%
12:00 0°C° 0 mm 3 mps 736 mmHg 69%
13:00 0°C° 0 mm 3 mps 736 mmHg 64%
14:00 0°C° 0 mm 3 mps 736 mmHg 66%
15:00 +1°C° 0 mm 2 mps 736 mmHg 69%
16:00 -1°C° 0 mm 2 mps 736 mmHg 72%
17:00 -1°C° 0 mm 2 mps 736 mmHg 75%
18:00 -2°C° 0 mm 2 mps 737 mmHg 79%
19:00 0°C° 0 mm 1 mps 737 mmHg 82%
20:00 0°C° 0 mm 1 mps 737 mmHg 85%
21:00 0°C° 0 mm 1 mps 737 mmHg 88%
22:00 0°C° 0 mm 1 mps 738 mmHg 91%
23:00 -1°C° 0.1 mm 1 mps 738 mmHg 93%

26 January, Tuesday

Time Temperature Precipitation Wind Pressure Humidity
00:00 -1°C° 0.1 mm 1 mps 738 mmHg 94%
01:00 -1°C° 0.1 mm 1 mps 738 mmHg 95%
02:00 -1°C° 0 mm 1 mps 738 mmHg 95%
03:00 -1°C° 0 mm 1 mps 739 mmHg 95%
04:00 -1°C° 0 mm 1 mps 739 mmHg 95%
05:00 -1°C° 0 mm 1 mps 739 mmHg 94%
06:00 -3°C° 0 mm 2 mps 740 mmHg 93%
07:00 -3°C° 0 mm 2 mps 740 mmHg 91%
08:00 -2°C° 0 mm 2 mps 740 mmHg 89%
09:00 -2°C° 0 mm 3 mps 741 mmHg 86%
10:00 -1°C° 0 mm 3 mps 741 mmHg 83%
11:00 -2°C° 0 mm 4 mps 741 mmHg 81%
12:00 -1°C° 0 mm 4 mps 741 mmHg 80%
13:00 0°C° 0 mm 5 mps 741 mmHg 78%
14:00 0°C° 0 mm 4 mps 741 mmHg 81%
15:00 0°C° 0 mm 4 mps 741 mmHg 83%
16:00 +1°C° 0 mm 3 mps 741 mmHg 86%
17:00 0°C° 0 mm 3 mps 741 mmHg 87%
18:00 0°C° 0 mm 3 mps 740 mmHg 88%
19:00 -1°C° 0 mm 3 mps 740 mmHg 89%
20:00 -1°C° 0 mm 3 mps 740 mmHg 90%
21:00 -1°C° 0 mm 3 mps 740 mmHg 90%
22:00 -2°C° 0 mm 4 mps 739 mmHg 90%
23:00 -2°C° 0.1 mm 4 mps 738 mmHg 91%

27 January, Wednesday

Time Temperature Precipitation Wind Pressure Humidity
00:00 -2°C° 0.1 mm 4 mps 738 mmHg 91%
01:00 -2°C° 0.1 mm 4 mps 737 mmHg 92%
02:00 -2°C° 1 mm 4 mps 736 mmHg 94%
03:00 -1°C° 1 mm 3 mps 735 mmHg 96%
04:00 -1°C° 1 mm 3 mps 734 mmHg 98%
05:00 0°C° 0.7 mm 3 mps 734 mmHg 98%
06:00 +2°C° 0.7 mm 2 mps 733 mmHg 98%
07:00 +2°C° 0.7 mm 2 mps 733 mmHg 98%
08:00 +2°C° 0.3 mm 2 mps 734 mmHg 98%
09:00 +2°C° 0.3 mm 2 mps 735 mmHg 98%
10:00 +3°C° 0.3 mm 2 mps 735 mmHg 98%
11:00 +2°C° 0.1 mm 2 mps 736 mmHg 98%
12:00 +1°C° 0.1 mm 3 mps 737 mmHg 98%
13:00 +1°C° 0.1 mm 3 mps 738 mmHg 98%
14:00 +1°C° 0.1 mm 3 mps 738 mmHg 97%
15:00 +1°C° 0.1 mm 3 mps 739 mmHg 97%
16:00 +1°C° 0.1 mm 2 mps 739 mmHg 97%
17:00 +1°C° 0 mm 2 mps 740 mmHg 97%
18:00 +2°C° 0 mm 1 mps 741 mmHg 97%
19:00 +2°C° 0 mm 1 mps 741 mmHg 97%
20:00 +2°C° 0.1 mm 2 mps 741 mmHg 97%
21:00 +1°C° 0.1 mm 3 mps 741 mmHg 96%
22:00 +2°C° 0.1 mm 3 mps 741 mmHg 96%
23:00 +2°C° 0 mm 3 mps 741 mmHg 95%
Show more

We Need Your Consent

Meteoprog and our Service Providers may store and access personal data such as cookies, device identifiers or other similar technologies on your device and process such data to personalise content and ads, as well as provide social media features and to analyse the traffic.

  • Store and/or access information on your device

    Cookies, device identifiers or other information can be stored or accessed on your device for the purposes indicated above.

  • Personalised ads and content, ad and content measurement, audience insights, and products development

    Ads and content can be personalised based on a profile. More data can be added to better personalise ads and content. Ad and content performance can be measured. Insights about the audience who saw the ads and content can be derived. Such data can be used to develop or improve user’s experience, systems and software.

By clicking ‘I Agree’ you will allow the use of indicated cookies, device identifiers, web beacons or other similar technologies. Your settings can be changed in the browser on your device.

For certain purposes, legitimate interests may be relied on, rather than consent. You can read more about this in our Privacy and Cookie Policy.